OBJECT H, 100787

Orbit data source: Space-Track

You're viewing an uncataloged RSO

Recently launched and/or uncataloged RSOs may have evolving metadata. Metadata may include the following, but is not limited to: Owner, Manufacturer, Bus, Motor, and Mission.

OBJECT H, 100787 is a Chinese satellite in SSO that was launched on Mon, 21 Sep 2026 UTC launched from the Jiuquan Satellite Launch Center, China (JSC). Unknown objects in Earth's orbit typically refer to objects detected orbiting the Earth but have not yet been identified or cataloged. These objects could be anything from previously untracked satellites, spent rocket stages, debris from satellite collisions, or even natural meteoroids temporarily captured by Earth's gravity.

Loading next visibility...
Identifier
100787, 2026-220H
Orbit
SSO
Country
Flag of CNCN / PRC
Related business
None
Manufacturer
Unknown
Mission
Operational spacecraft
Bus & Motor
Unknown
Mass
Unknown
Launch date (UTC)
Icon of a cake. It is the launch day of the satellite!2026-09-21 (11 hours ago)
Launch vehicle
Unknown
Launch site
Jiuquan Satellite Launch Center, China (JSC)
Object type
Unknown
Shape & HBR
Unknown
Radar Cross Section
RCS unknown

Expand to show TLE details & history
Last TLE update: 1 day ago

TLE from 1 day ago
0 OBJECT H
1 A0787U 26220H   26263.94112245  .00003198  00000-0  19461-3 0  9996
2 A0787  97.5462 337.4027 0013903 283.2727  76.6952 15.11066542   129
Epoch: 2026-09-20T22:35Z
TLE epoch observation values (Epoch: 2026-09-20T22:35:12.979Z)
Latitude
-0.00004°
Longitude
-1.22946°
Altitude
533.821 km
Speed
7.597 km/s
True Right ascension
22h 29m 36s
True Declination
0° 00' 00"
Sunlit
Object was in full shadow at epoch
Visualization orbit readout
Latitude
Unknown
Longitude
Unknown
Altitude
Unknown
Speed
Unknown
Apparent Right ascension
Unknown
Apparent Declination
Unknown
Sunlit
N/A
Visualization observer readout
Local Sidereal Time
15:36:46
Azimuth
Unknown
Elevation
Unknown
Doppler factor
Unknown
Orbital elements
Apogee altitude
539.534 km
Perigee altitude
520.326 km
Semi-major axis
6,908.067 km
Eccentricity
0.00139
Inclination
97.5462°
RAAN
337.4027°
Arg. of periapsis
283.2727°
True anomaly
76.8503°
Mean anomaly
76.6952°
Eccentric anomaly
76.77275°
Mean motion
3.78014 °/min
Orbital period
95.23 mins
BSTAR
0.00019461
Loading maneuver chart data...
Computing Atmospheric mass density...
Loading historical data...
Loading historical data...
Loading historical data...
Loading historical data...
Loading historical data...
Loading historical data...
Loading historical data...

Documentation

Showing up to 5 results
|